Simultaneous Nadir Overpasses (SNOs) Predictions

Prediction of SNOs between METOP-A and NOAA-19 Satellite Orbit:

Table of predicted SNOs for the next 14.0 days since TLE Epoch: 1/14/2017
Index Date (METOP-A) Time (METOP-A) Lat,Lon (METOP-A) SZA (METOP-A ) Date (NOAA-19) Time (NOAA-19) Lat,Lon (NOAA-19) SZA (NOAA-19 ) Distance(km) Time Diff (sec)
1 01/20/2017 04:03:05 -76.82, -57.85 83.18 01/20/2017 04:01:52 -76.84, -57.93 83.15 3.27 73
2 01/20/2017 04:53:45 76.82, 109.51 96.83 01/20/2017 04:52:48 76.82, 109.40 96.83 2.65 57
3 01/20/2017 05:44:27 -76.80, -83.27 83.21 01/20/2017 05:43:53 -76.81, -83.30 83.20 1.36 34
4 01/20/2017 06:35:07 76.80, 84.09 96.79 01/20/2017 06:34:49 76.79, 84.04 96.78 2.06 18
5 01/20/2017 07:25:49 -76.78,-108.68 83.25 01/20/2017 07:25:54 -76.78,-108.67 83.25 0.57 5
6
